カタログに戻る

SECOR 9

EGRS 9

運用中科学PO
NORAD 2861·PAYLOAD·🇺🇸 United States

打ち上げ Jun 29, 1967 から Vandenberg Space Force Base

Loading…

次のパス (今後24時間)

TLE

最新Source: Space-Track

元期: Sep 14, 2026, 03:16 UTC

1 02861U 67065A   26257.13673166  .00000017  00000-0  95958-2 0  9992
2 02861  89.9754 314.0107 0072175  19.2018 341.1516  8.36661373808493

AllMySatでSECOR 9をリアルタイム追跡

Download on the App Store